Fort Knox, KY

9:58 PM EDT on April 26, 2017 (GMT -0400)
Godman Army Air Field

Weather History for KFTK - November, 2013

Change the Weather History Date:

Sunday, November 3, 2013

  Actual Average Record
Temperature  
Mean Temperature 44 °F -  
Max Temperature 56 °F 59 °F 80 °F (2003)
Min Temperature 33 °F 40 °F 21 °F (1996)
Degree Days  
Heating Degree Days 21    
Moisture  
Dew Point 35 °F    
Average Humidity 67    
Maximum Humidity 99    
Minimum Humidity 44    
Precipitation  
Precipitation 0.00 in - - ()
Sea Level Pressure  
Sea Level Pressure 30.27 in    
Wind  
Wind Speed 4 mph (East)    
Max Wind Speed 8 mph    
Max Gust Speed -    
Visibility 10 miles    
Events Rain    
Averages and records for this station are not official NWS values.
T = Trace of Precipitation, MM = Missing Value Source: NWS Daily Summary

Daily Weather History Graph

Daily Weather History Graph

Search for Another Location

Airport or City:

Trip Planner

Search our weather history database for the weather conditions in past years. The results will help you decide how hot, cold, wet, or windy it might be!

Date:

Astronomy

Nov. 03, 2013 Rise Set
Actual Time 7:11 AM EST 5:42 PM EST
Civil Twilight 6:44 AM EST 6:09 PM EST
Nautical Twilight 6:13 AM EST 6:41 PM EST
Astronomical Twilight 5:42 AM EST 7:11 PM EST
Moon 7:14 AM EST (11/3) 5:57 PM EST (11/3)
Length of Visible Light 11h 25m
Length of Day
10h 30m
New Moon, 0% of the Moon is Illuminated
Nov 3
New Moon
Nov 10
First Quarter
Nov 17
Full
Nov 25
Last Quarter
Dec 2
New

Hourly Weather History & Observations

Time (EST) Temp. Windchill Dew Point Humidity Pressure Visibility Wind Dir Wind Speed Gust Speed Precip Events Conditions
1:58 AM 38.7 °F 36.3 °F 35.4 °F 88% 30.16 in 10.0 mi WNW 3.5 mph - N/A   Scattered Clouds
1:58 AM 40.6 °F 37.5 °F 37.8 °F 89% 30.17 in 10.0 mi West 4.6 mph - N/A   Overcast
2:58 AM 39.7 °F 36.5 °F 36.9 °F 89% 30.19 in 10.0 mi WNW 4.6 mph - N/A   Overcast
3:58 AM 38.3 °F 33.9 °F 36.0 °F 91% 30.20 in 10.0 mi NW 5.8 mph - N/A   Clear
4:58 AM 37.2 °F - 34.9 °F 91% 30.22 in 10.0 mi WNW 2.3 mph - N/A   Clear
5:58 AM 35.4 °F - 34.3 °F 96% 30.24 in 9.0 mi Calm Calm - N/A   Clear
6:58 AM 33.8 °F - 33.4 °F 99% 30.26 in 10.0 mi Calm Calm - N/A   Clear
11:57 AM 53.6 °F - 35.6 °F 51% 30.32 in 10.0 mi ESE 5.8 mph - N/A Rain Light Rain
11:58 AM 53.6 °F - 35.6 °F 51% 30.32 in 10.0 mi East 5.8 mph - N/A Rain Light Rain
11:59 AM 53.6 °F - 35.6 °F 51% 30.32 in 10.0 mi East 4.6 mph - N/A   Scattered Clouds
12:00 PM 53.6 °F - 35.6 °F 51% 30.32 in 10.0 mi East 5.8 mph - N/A Rain Light Rain
12:55 PM 53.2 °F - 34.3 °F 49% 30.30 in 10.0 mi ENE 5.8 mph - N/A   Scattered Clouds
1:55 PM 54.5 °F - 34.3 °F 47% 30.29 in 10.0 mi SE 5.8 mph - N/A   Scattered Clouds
2:55 PM 54.5 °F - 34.3 °F 47% 30.29 in 10.0 mi East 6.9 mph - N/A   Scattered Clouds
2:56 PM 55.4 °F - 33.8 °F 44% 30.29 in 10.0 mi East 6.9 mph - N/A Rain Light Rain
2:59 PM 54.5 °F - 34.3 °F 47% 30.29 in 10.0 mi East 6.9 mph - N/A   Scattered Clouds
3:55 PM 55.4 °F - 35.6 °F 47% 30.27 in 10.0 mi NNE 6.9 mph - N/A   Partly Cloudy
4:55 PM 53.6 °F - 33.8 °F 47% 30.27 in 10.0 mi East 8.1 mph - N/A   Clear
5:59 PM 50.0 °F - 35.6 °F 58% 30.28 in 10.0 mi East 3.5 mph - N/A   Partly Cloudy
6:55 PM 46.6 °F - 35.1 °F 64% 30.27 in 10.0 mi East 4.6 mph - N/A   Clear
7:58 PM 45.1 °F - 34.9 °F 67% 30.28 in 10.0 mi Calm Calm - N/A   Clear
8:58 PM 39.4 °F - 33.8 °F 80% 30.32 in 10.0 mi Calm Calm - N/A   Clear
9:58 PM 40.6 °F - 34.9 °F 80% 30.32 in 10.0 mi ENE 2.3 mph - N/A   Clear
10:55 PM 38.8 °F - 34.7 °F 85% 30.32 in 10.0 mi Calm Calm - N/A   Clear